Orbital Elements
Epoch 2022 Jan. 21.0 TT = JDT 2459600.5
T 2023 May 27.35779 TT Rudenko
q 3.2345106 (2000.0) P Q
z -0.0000712 Peri. 334.59210 +0.82747634 +0.54902403
+/-0.0000083 Node 10.57869 +0.55852909 -0.78326965
e 1.0002303 Incl. 140.12094 -0.05769023 +0.29165264
From 512 observations 2021 Oct. 22-2022 May 2, mean residual 0".3.
|